User: anonymous   Login
Location: Kitt Peak
(31.9639°N, 111.5992°W)
Time: 20:45:31
(UTC-07:00)
Language:

NOAA 19 - Orbit

View from above orbital plane
View from above orbital plane
View from above satellite
View from above satellite

Ground track
Ground track

The orbit data is extracted from the following two-line orbital elements,

1 33591U 09005A   24262.83745173  .00000434  00000-0  25661-3 0  9993
2 33591  99.0379 319.5898 0014180  32.2635 327.9401 14.13121889804857
Epoch (UTC): 18 September 2024 20:05:55
Eccentricity: 0.0014180
inclination: 99.0379°
perigee height: 838 km
apogee height: 859 km
right ascension of ascending node: 319.5898°
argument of perigee: 32.2635°
revolutions per day: 14.13121889
mean anomaly at epoch: 327.9401°
orbit number at epoch: 80485

The dashed part of the orbit path shows where the satellite is in the earth's shadow,  

DLR